Voltar ao catálogo

THOR ABLESTAR DEB

AtivoLEO
NORAD 134·DEBRIS·🇺🇸 United States

Lançado Jun 29, 1961 de Cape Canaveral Space Force Station

Loading…

Próximas Passagens (próximas 24 horas)

TLE

AtualizadoSource: Space-Track

Época: Sep 7, 2026, 06:53 UTC

1 00134U 61015U   26250.28695120  .00000019  00000-0  66313-4 0  9992
2 00134  66.8794 204.6069 0076745 136.0316 224.6908 13.97785042317172

Acompanhe THOR ABLESTAR DEB em tempo real com AllMySat

Download on the App Store